Back to catalog

SL-8 DEB

AliveUNKNOWN
NORAD 1634·DEBRIS·🇷🇺 Russia

Launched Mar 15, 1965 from Baikonur Cosmodrome

Loading…

Next Passes (next 24 hours)

TLE

FreshSource: Space-Track

Epoch: Sep 14, 2026, 03:47 UTC

1 01634U 65020ED  26257.15810314 -.00000018  00000-0  13556-3 0  9995
2 01634  56.1551 181.2563 0852725 199.8279 156.7512 12.48579961773599

Track SL-8 DEB in real time with AllMySat

Download on the App Store